| time (UTC) | temp F | wind direction | speed MPH | gust MPH | rain 1hr in | rain 24hr in | rain mn in | humidity % | barometer mb |
| 20260905150003 | 75 | 173 | 1.0 | 5.0 | 0.00 | 0.00 | 0.00 | 41 | 1027.4 |
| 20260905145403 | 74 | 183 | 1.0 | 5.0 | 0.00 | 0.00 | 0.00 | 39 | 1027.4 |
| 20260905144503 | 74 | 176 | 2.0 | 6.0 | 0.00 | 0.00 | 0.00 | 38 | 1027.4 |
| 20260905143603 | 73 | 175 | 1.0 | 6.0 | 0.00 | 0.00 | 0.00 | 36 | 1027.4 |
| 20260905142703 | 72 | 181 | 1.0 | 3.0 | 0.00 | 0.00 | 0.00 | 36 | 1027.4 |
| 20260905141824 | 71 | 206 | 1.0 | 5.0 | 0.00 | 0.00 | 0.00 | 37 | 1027.4 |
| 20260905140903 | 70 | 167 | 0.0 | 4.0 | 0.00 | 0.00 | 0.00 | 39 | 1027.4 |
| 20260905140024 | 69 | 163 | 0.0 | 5.0 | 0.00 | 0.00 | 0.00 | 41 | 1027.4 |
| 20260905135424 | 68 | 164 | 0.0 | 6.0 | 0.00 | 0.00 | 0.00 | 41 | 1027.4 |
| 20260905134503 | 66 | 116 | 0.0 | 6.0 | 0.00 | 0.00 | 0.00 | 41 | 1027.4 |
| 20260905133603 | 66 | 186 | 1.0 | 4.0 | 0.00 | 0.00 | 0.00 | 40 | 1027.4 |
| 20260905132703 | 65 | 178 | 1.0 | 4.0 | 0.00 | 0.00 | 0.00 | 38 | 1027.4 |
| 20260905131824 | 65 | 173 | 1.0 | 5.0 | 0.00 | 0.00 | 0.00 | 38 | 1027.4 |
| 20260905130903 | 65 | 187 | 1.0 | 5.0 | 0.00 | 0.00 | 0.00 | 39 | 1027.4 |
| 20260905130003 | 65 | 190 | 1.0 | 3.0 | 0.00 | 0.00 | 0.00 | 38 | 1027.4 |
| 20260905125403 | 65 | 190 | 1.0 | 4.0 | 0.00 | 0.00 | 0.00 | 38 | 1027.4 |
| 20260905124503 | 65 | 190 | 0.0 | 2.0 | 0.00 | 0.00 | 0.00 | 38 | 1027.4 |
| 20260905123624 | 65 | 189 | 1.0 | 2.0 | 0.00 | 0.00 | 0.00 | 38 | 1027.4 |
| 20260905122703 | 66 | 188 | 0.0 | 3.0 | 0.00 | 0.00 | 0.00 | 37 | 1027.4 |
| 20260905121803 | 66 | 190 | 0.0 | 3.0 | 0.00 | 0.00 | 0.00 | 37 | 1027.4 |
| 20260905120903 | 66 | 193 | 1.0 | 4.0 | 0.00 | 0.00 | 0.00 | 37 | 1027.4 |
| 20260905120024 | 67 | 167 | 1.0 | 4.0 | 0.00 | 0.00 | 0.00 | 37 | 1027.4 |
| 20260905115403 | 67 | 160 | 1.0 | 4.0 | 0.00 | 0.00 | 0.00 | 37 | 1027.4 |
| 20260905114510 | 67 | 189 | 1.0 | 5.0 | 0.00 | 0.00 | 0.00 | 37 | 1027.4 |
| 20260905113603 | 67 | 160 | 1.0 | 7.0 | 0.00 | 0.00 | 0.00 | 37 | 1027.4 |
| 20260905112703 | 67 | 161 | 1.0 | 5.0 | 0.00 | 0.00 | 0.00 | 37 | 1027.4 |
| 20260905111803 | 67 | 165 | 1.0 | 4.0 | 0.00 | 0.00 | 0.00 | 37 | 1027.4 |
| 20260905110903 | 67 | 170 | 1.0 | 6.0 | 0.00 | 0.00 | 0.00 | 38 | 1027.4 |
| 20260905110003 | 67 | 196 | 1.0 | 3.0 | 0.00 | 0.00 | 0.00 | 40 | 1027.4 |
| 20260905105424 | 67 | 177 | 1.0 | 3.0 | 0.00 | 0.00 | 0.00 | 40 | 1027.4 |
| 20260905104524 | 67 | 168 | 1.0 | 4.0 | 0.00 | 0.00 | 0.00 | 41 | 1027.4 |
| 20260905103603 | 67 | 147 | 1.0 | 5.0 | 0.00 | 0.00 | 0.00 | 41 | 1027.4 |
| 20260905102703 | 67 | 162 | 1.0 | 6.0 | 0.00 | 0.00 | 0.00 | 41 | 1027.4 |
| 20260905101824 | 67 | 179 | 1.0 | 3.0 | 0.00 | 0.00 | 0.00 | 42 | 1027.4 |
| 20260905100903 | 67 | 155 | 1.0 | 3.0 | 0.00 | 0.00 | 0.00 | 42 | 1027.4 |
| 20260905100024 | 68 | 155 | 0.0 | 2.0 | 0.00 | 0.00 | 0.00 | 42 | 1027.4 |
| 20260905095403 | 68 | 158 | 0.0 | 2.0 | 0.00 | 0.00 | 0.00 | 41 | 1027.4 |
| 20260905094524 | 68 | 161 | 0.0 | 4.0 | 0.00 | 0.00 | 0.00 | 40 | 1027.4 |
| 20260905093603 | 69 | 146 | 1.0 | 3.0 | 0.00 | 0.00 | 0.00 | 40 | 1027.4 |
| 20260905092703 | 69 | 164 | 1.0 | 3.0 | 0.00 | 0.00 | 0.00 | 40 | 1027.4 |
| 20260905091803 | 69 | 161 | 1.0 | 4.0 | 0.00 | 0.00 | 0.00 | 40 | 1027.4 |
| 20260905090924 | 70 | 156 | 0.0 | 2.0 | 0.00 | 0.00 | 0.00 | 40 | 1027.4 |
| 20260905090003 | 70 | 157 | 1.0 | 5.0 | 0.00 | 0.00 | 0.00 | 40 | 1027.4 |
| 20260905085403 | 70 | 163 | 1.0 | 5.0 | 0.00 | 0.00 | 0.00 | 39 | 1027.4 |
| 20260905084503 | 70 | 168 | 1.0 | 4.0 | 0.00 | 0.00 | 0.00 | 39 | 1027.4 |
| 20260905083603 | 70 | 174 | 1.0 | 5.0 | 0.00 | 0.00 | 0.00 | 38 | 1027.4 |
| 20260905082724 | 70 | 145 | 1.0 | 5.0 | 0.00 | 0.00 | 0.00 | 37 | 1027.4 |
| 20260905081803 | 70 | 163 | 1.0 | 6.0 | 0.00 | 0.00 | 0.00 | 37 | 1027.4 |
| 20260905080903 | 71 | 145 | 1.0 | 3.0 | 0.00 | 0.00 | 0.00 | 38 | 1027.4 |
| 20260905080003 | 71 | 141 | 1.0 | 4.0 | 0.00 | 0.00 | 0.00 | 38 | 1027.4 |
| 20260905075403 | 71 | 130 | 1.0 | 5.0 | 0.00 | 0.00 | 0.00 | 39 | 1027.4 |
| 20260905074524 | 72 | 138 | 1.0 | 6.0 | 0.00 | 0.00 | 0.00 | 38 | 1027.4 |
| 20260905073624 | 72 | 160 | 1.0 | 6.0 | 0.00 | 0.00 | 0.00 | 37 | 1027.4 |
| 20260905072703 | 72 | 163 | 1.0 | 6.0 | 0.00 | 0.00 | 0.00 | 37 | 1027.4 |
| 20260905071803 | 73 | 147 | 0.0 | 4.0 | 0.00 | 0.00 | 0.00 | 36 | 1027.4 |
| 20260905070903 | 74 | 140 | 1.0 | 8.0 | 0.00 | 0.00 | 0.00 | 35 | 1027.4 |
| 20260905070003 | 74 | 150 | 1.0 | 4.0 | 0.00 | 0.00 | 0.00 | 34 | 1027.4 |
| 20260905065403 | 74 | 147 | 2.0 | 10.0 | 0.00 | 0.00 | 0.00 | 33 | 1027.4 |
| 20260905064503 | 74 | 136 | 2.0 | 12.0 | 0.00 | 0.00 | 0.00 | 32 | 1027.4 |
| 20260905063603 | 74 | 130 | 2.0 | 8.0 | 0.00 | 0.00 | 0.00 | 32 | 1027.4 |
| 20260905062703 | 75 | 139 | 2.0 | 9.0 | 0.00 | 0.00 | 0.00 | 32 | 1027.4 |
| 20260905061803 | 75 | 141 | 2.0 | 9.0 | 0.00 | 0.00 | 0.00 | 32 | 1027.4 |
| 20260905060924 | 75 | 131 | 2.0 | 10.0 | 0.00 | 0.00 | 0.00 | 32 | 1027.4 |
| 20260905060004 | 75 | 132 | 1.0 | 7.0 | 0.00 | 0.00 | 0.00 | 32 | 1027.4 |
| 20260905055403 | 75 | 129 | 1.0 | 9.0 | 0.00 | 0.00 | 0.00 | 32 | 1027.4 |
| 20260905054503 | 75 | 133 | 2.0 | 9.0 | 0.00 | 0.00 | 0.00 | 31 | 1027.4 |
| 20260905053603 | 75 | 138 | 2.0 | 7.0 | 0.00 | 0.00 | 0.00 | 31 | 1027.4 |
| 20260905052724 | 76 | 125 | 2.0 | 7.0 | 0.00 | 0.00 | 0.00 | 31 | 1027.4 |
| 20260905051824 | 76 | 131 | 2.0 | 10.0 | 0.00 | 0.00 | 0.00 | 29 | 1027.4 |
| 20260905050903 | 76 | 144 | 1.0 | 6.0 | 0.00 | 0.00 | 0.00 | 27 | 1027.4 |
| 20260905050003 | 76 | 155 | 2.0 | 10.0 | 0.00 | 0.00 | 0.00 | 26 | 1027.4 |
| 20260905045424 | 76 | 173 | 2.0 | 10.0 | 0.00 | 0.00 | 0.00 | 26 | 1027.4 |
| 20260905044503 | 76 | 7 | 1.0 | 4.0 | 0.00 | 0.00 | 0.00 | 25 | 1027.4 |
| 20260905043603 | 76 | 4 | 1.0 | 6.0 | 0.00 | 0.00 | 0.00 | 25 | 1027.4 |
| 20260905042724 | 77 | 188 | 1.0 | 5.0 | 0.00 | 0.00 | 0.00 | 24 | 1027.4 |
| 20260905041803 | 77 | 182 | 1.0 | 6.0 | 0.00 | 0.00 | 0.00 | 24 | 1027.4 |
| 20260905040903 | 77 | 170 | 1.0 | 6.0 | 0.00 | 0.00 | 0.00 | 24 | 1027.4 |
| 20260905040003 | 78 | 178 | 0.0 | 3.0 | 0.00 | 0.00 | 0.00 | 23 | 1027.4 |
| 20260905035403 | 78 | 181 | 0.0 | 3.0 | 0.00 | 0.00 | 0.00 | 23 | 1027.4 |
| 20260905034503 | 79 | 182 | 1.0 | 3.0 | 0.00 | 0.00 | 0.00 | 22 | 1027.4 |
| 20260905033624 | 79 | 189 | 1.0 | 5.0 | 0.00 | 0.00 | 0.00 | 22 | 1027.4 |
| 20260905032703 | 80 | 210 | 0.0 | 5.0 | 0.00 | 0.00 | 0.00 | 22 | 1027.4 |
| 20260905031803 | 80 | 193 | 2.0 | 7.0 | 0.00 | 0.00 | 0.00 | 21 | 1027.4 |
| 20260905030903 | 80 | 188 | 3.0 | 11.0 | 0.00 | 0.00 | 0.00 | 22 | 1027.4 |
| 20260905030003 | 80 | 202 | 3.0 | 9.0 | 0.00 | 0.00 | 0.00 | 22 | 1027.4 |
| 20260905025403 | 80 | 196 | 3.0 | 8.0 | 0.00 | 0.00 | 0.00 | 22 | 1027.4 |
| 20260905024503 | 81 | 194 | 2.0 | 8.0 | 0.00 | 0.00 | 0.00 | 23 | 1027.4 |
| 20260905023603 | 81 | 191 | 2.0 | 6.0 | 0.00 | 0.00 | 0.00 | 23 | 1027.4 |
| 20260905022703 | 81 | 167 | 1.0 | 6.0 | 0.00 | 0.00 | 0.00 | 23 | 1027.4 |
| 20260905021824 | 82 | 173 | 2.0 | 9.0 | 0.00 | 0.00 | 0.00 | 23 | 1027.4 |
| 20260905020924 | 82 | 184 | 2.0 | 9.0 | 0.00 | 0.00 | 0.00 | 23 | 1027.4 |
| 20260905020003 | 82 | 188 | 3.0 | 9.0 | 0.00 | 0.00 | 0.00 | 23 | 1027.4 |
| 20260905015403 | 82 | 193 | 3.0 | 10.0 | 0.00 | 0.00 | 0.00 | 22 | 1027.4 |
| 20260905014503 | 83 | 196 | 3.0 | 8.0 | 0.00 | 0.00 | 0.00 | 22 | 1027.4 |
| 20260905013603 | 83 | 187 | 4.0 | 10.0 | 0.00 | 0.00 | 0.00 | 22 | 1027.4 |
| 20260905012703 | 83 | 185 | 3.0 | 14.0 | 0.00 | 0.00 | 0.00 | 22 | 1027.4 |
| 20260905011803 | 84 | 185 | 2.0 | 7.0 | 0.00 | 0.00 | 0.00 | 23 | 1027.4 |
| 20260905010903 | 84 | 176 | 3.0 | 17.0 | 0.00 | 0.00 | 0.00 | 22 | 1027.4 |
| 20260905010003 | 84 | 173 | 3.0 | 17.0 | 0.00 | 0.00 | 0.00 | 22 | 1027.4 |
| 20260905005403 | 85 | 175 | 3.0 | 11.0 | 0.00 | 0.00 | 0.00 | 22 | 1027.4 |
| 20260905004503 | 85 | 184 | 3.0 | 9.0 | 0.00 | 0.00 | 0.00 | 21 | 1027.4 |
| 20260905003603 | 86 | 184 | 2.0 | 7.0 | 0.00 | 0.00 | 0.00 | 21 | 1027.4 |
| 20260905002724 | 86 | 187 | 4.0 | 11.0 | 0.00 | 0.00 | 0.00 | 20 | 1027.4 |
| 20260905001803 | 86 | 171 | 3.0 | 17.0 | 0.00 | 0.00 | 0.00 | 21 | 1027.4 |
| 20260905000903 | 87 | 180 | 4.0 | 11.0 | 0.00 | 0.00 | 0.00 | 20 | 1027.4 |
| 20260905000003 | 88 | 175 | 3.0 | 10.0 | 0.00 | 0.00 | 0.00 | 19 | 1027.4 |
| 20260904235403 | 88 | 174 | 3.0 | 12.0 | 0.00 | 0.00 | 0.00 | 19 | 1027.4 |
| 20260904234503 | 88 | 177 | 2.0 | 7.0 | 0.00 | 0.00 | 0.00 | 20 | 1027.4 |
| 20260904233603 | 88 | 180 | 2.0 | 11.0 | 0.00 | 0.00 | 0.00 | 19 | 1027.4 |
| 20260904232703 | 88 | 181 | 3.0 | 11.0 | 0.00 | 0.00 | 0.00 | 18 | 1027.4 |
| 20260904231803 | 88 | 184 | 4.0 | 16.0 | 0.00 | 0.00 | 0.00 | 18 | 1027.4 |
| 20260904230903 | 88 | 174 | 3.0 | 11.0 | 0.00 | 0.00 | 0.00 | 19 | 1027.4 |
| 20260904230003 | 88 | 185 | 3.0 | 11.0 | 0.00 | 0.00 | 0.00 | 17 | 1027.4 |
| 20260904225403 | 88 | 181 | 3.0 | 10.0 | 0.00 | 0.00 | 0.00 | 19 | 1027.4 |
| 20260904224503 | 88 | 177 | 3.0 | 8.0 | 0.00 | 0.00 | 0.00 | 17 | 1027.4 |
| 20260904223603 | 88 | 181 | 4.0 | 15.0 | 0.00 | 0.00 | 0.00 | 18 | 1027.4 |
| 20260904222724 | 88 | 176 | 4.0 | 16.0 | 0.00 | 0.00 | 0.00 | 18 | 1027.4 |
| 20260904221803 | 88 | 173 | 5.0 | 15.0 | 0.00 | 0.00 | 0.00 | 19 | 1027.4 |
| 20260904220903 | 88 | 180 | 5.0 | 17.0 | 0.00 | 0.00 | 0.00 | 19 | 1027.4 |
| 20260904220003 | 88 | 184 | 5.0 | 16.0 | 0.00 | 0.00 | 0.00 | 18 | 1027.4 |
| 20260904215403 | 88 | 186 | 5.0 | 15.0 | 0.00 | 0.00 | 0.00 | 19 | 1027.4 |
| 20260904214503 | 88 | 181 | 4.0 | 10.0 | 0.00 | 0.00 | 0.00 | 17 | 1027.4 |
| 20260904213624 | 87 | 170 | 4.0 | 12.0 | 0.00 | 0.00 | 0.00 | 18 | 1027.4 |
| 20260904212703 | 87 | 184 | 4.0 | 13.0 | 0.00 | 0.00 | 0.00 | 18 | 1027.4 |
| 20260904211803 | 87 | 169 | 4.0 | 19.0 | 0.00 | 0.00 | 0.00 | 18 | 1027.4 |
| 20260904210903 | 87 | 176 | 4.0 | 15.0 | 0.00 | 0.00 | 0.00 | 17 | 1027.4 |
| 20260904210003 | 87 | 174 | 4.0 | 15.0 | 0.00 | 0.00 | 0.00 | 18 | 1027.4 |
| 20260904205403 | 87 | 176 | 4.0 | 10.0 | 0.00 | 0.00 | 0.00 | 18 | 1027.4 |
| 20260904204503 | 87 | 186 | 3.0 | 11.0 | 0.00 | 0.00 | 0.00 | 18 | 1027.4 |
| 20260904203603 | 87 | 173 | 2.0 | 8.0 | 0.00 | 0.00 | 0.00 | 20 | 1027.4 |
| 20260904202703 | 86 | 183 | 4.0 | 11.0 | 0.00 | 0.00 | 0.00 | 18 | 1027.4 |
| 20260904201824 | 86 | 196 | 3.0 | 12.0 | 0.00 | 0.00 | 0.00 | 22 | 1027.4 |
| 20260904200924 | 85 | 165 | 5.0 | 17.0 | 0.00 | 0.00 | 0.00 | 20 | 1027.4 |
| 20260904200003 | 84 | 144 | 3.0 | 17.0 | 0.00 | 0.00 | 0.00 | 22 | 1027.4 |
| 20260904195403 | 84 | 137 | 5.0 | 15.0 | 0.00 | 0.00 | 0.00 | 22 | 1027.4 |
| 20260904194503 | 84 | 142 | 4.0 | 15.0 | 0.00 | 0.00 | 0.00 | 21 | 1027.4 |
| 20260904193603 | 83 | 131 | 7.0 | 21.0 | 0.00 | 0.00 | 0.00 | 22 | 1027.4 |
| 20260904192703 | 83 | 134 | 6.0 | 19.0 | 0.00 | 0.00 | 0.00 | 22 | 1027.4 |
| 20260904191803 | 83 | 139 | 6.0 | 19.0 | 0.00 | 0.00 | 0.00 | 22 | 1027.4 |
| 20260904190903 | 83 | 140 | 5.0 | 23.0 | 0.00 | 0.00 | 0.00 | 22 | 1027.4 |
| 20260904190003 | 83 | 141 | 4.0 | 20.0 | 0.00 | 0.00 | 0.00 | 23 | 1027.4 |
| 20260904185424 | 82 | 145 | 3.0 | 14.0 | 0.00 | 0.00 | 0.00 | 24 | 1027.4 |
| 20260904184503 | 82 | 132 | 6.0 | 24.0 | 0.00 | 0.00 | 0.00 | 24 | 1027.4 |
| 20260904183603 | 82 | 144 | 5.0 | 16.0 | 0.00 | 0.00 | 0.00 | 23 | 1027.4 |
| 20260904182703 | 82 | 141 | 3.0 | 15.0 | 0.00 | 0.00 | 0.00 | 25 | 1027.4 |
| 20260904181803 | 81 | 140 | 5.0 | 16.0 | 0.00 | 0.00 | 0.00 | 26 | 1027.4 |
| 20260904180903 | 81 | 143 | 5.0 | 19.0 | 0.00 | 0.00 | 0.00 | 26 | 1027.4 |
| 20260904180003 | 81 | 143 | 4.0 | 16.0 | 0.00 | 0.00 | 0.00 | 26 | 1027.4 |
| 20260904175403 | 81 | 144 | 4.0 | 16.0 | 0.00 | 0.00 | 0.00 | 27 | 1027.4 |
| 20260904174524 | 81 | 152 | 4.0 | 15.0 | 0.00 | 0.00 | 0.00 | 26 | 1027.4 |
| 20260904173603 | 81 | 149 | 3.0 | 13.0 | 0.00 | 0.00 | 0.00 | 26 | 1027.4 |
| 20260904172703 | 80 | 147 | 3.0 | 14.0 | 0.00 | 0.00 | 0.00 | 29 | 1027.4 |
| 20260904171803 | 80 | 150 | 4.0 | 20.0 | 0.00 | 0.00 | 0.00 | 26 | 1027.4 |
| 20260904170903 | 80 | 135 | 4.0 | 20.0 | 0.00 | 0.00 | 0.00 | 28 | 1027.4 |
| 20260904170003 | 80 | 145 | 3.0 | 10.0 | 0.00 | 0.00 | 0.00 | 27 | 1027.4 |
| 20260904165403 | 79 | 142 | 2.0 | 10.0 | 0.00 | 0.00 | 0.00 | 29 | 1027.4 |
| 20260904164503 | 78 | 143 | 3.0 | 11.0 | 0.00 | 0.00 | 0.00 | 28 | 1027.4 |
| 20260904163603 | 78 | 151 | 3.0 | 10.0 | 0.00 | 0.00 | 0.00 | 26 | 1027.4 |
| 20260904162703 | 78 | 150 | 3.0 | 9.0 | 0.00 | 0.00 | 0.00 | 28 | 1027.4 |
| 20260904161804 | 77 | 154 | 2.0 | 13.0 | 0.00 | 0.00 | 0.00 | 29 | 1027.4 |
| 20260904160903 | 77 | 152 | 2.0 | 7.0 | 0.00 | 0.00 | 0.00 | 32 | 1027.4 |
| 20260904160003 | 76 | 147 | 2.0 | 9.0 | 0.00 | 0.00 | 0.00 | 30 | 1027.4 |
| 20260904155403 | 76 | 151 | 2.0 | 6.0 | 0.00 | 0.00 | 0.00 | 30 | 1027.4 |
| 20260904154503 | 75 | 144 | 2.0 | 8.0 | 0.00 | 0.00 | 0.00 | 32 | 1027.4 |
| 20260904153603 | 75 | 154 | 2.0 | 8.0 | 0.00 | 0.00 | 0.00 | 33 | 1027.4 |
| 20260904152703 | 74 | 149 | 2.0 | 8.0 | 0.00 | 0.00 | 0.00 | 33 | 1027.4 |
| 20260904151824 | 74 | 160 | 2.0 | 8.0 | 0.00 | 0.00 | 0.00 | 37 | 1027.4 |
| 20260904150903 | 73 | 180 | 1.0 | 6.0 | 0.00 | 0.00 | 0.00 | 36 | 1027.4 |